TimeEST,TemperatureF,Dew PointF,Humidity,Sea Level PressureIn,VisibilityMPH,Wind Direction,Wind SpeedMPH,Gust SpeedMPH,PrecipitationIn,Events,Conditions,WindDirDegrees,DateUTC
12:15 AM,60.8,54.3,79,29.61,10.0,WNW,8.1,-,N/A,,Clear,290,2013-02-27 05:15:00
12:35 AM,60.4,53.6,78,29.62,10.0,WNW,4.6,-,N/A,,Clear,290,2013-02-27 05:35:00
12:55 AM,59.2,53.1,80,29.62,10.0,West,3.5,-,N/A,,Clear,270,2013-02-27 05:55:00
1:15 AM,58.1,51.8,80,29.63,10.0,West,5.8,-,N/A,,Clear,260,2013-02-27 06:15:00
1:35 AM,58.1,51.3,78,29.63,10.0,West,4.6,-,N/A,,Clear,260,2013-02-27 06:35:00
1:55 AM,57.6,51.1,79,29.63,10.0,WSW,4.6,-,N/A,,Clear,240,2013-02-27 06:55:00
2:15 AM,54.0,48.4,81,29.63,10.0,WSW,4.6,-,N/A,,Clear,240,2013-02-27 07:15:00
2:35 AM,52.7,47.3,82,29.63,10.0,SW,6.9,-,N/A,,Clear,230,2013-02-27 07:35:00
2:55 AM,52.7,46.9,81,29.63,10.0,WSW,6.9,-,N/A,,Clear,250,2013-02-27 07:55:00
3:15 AM,52.7,46.2,79,29.62,10.0,SW,5.8,-,N/A,,Clear,230,2013-02-27 08:15:00
3:35 AM,52.7,46.9,81,29.62,10.0,SW,5.8,-,N/A,,Clear,230,2013-02-27 08:35:00
3:55 AM,52.7,47.3,82,29.63,10.0,SW,5.8,-,N/A,,Clear,230,2013-02-27 08:55:00
4:15 AM,52.7,47.3,82,29.64,10.0,SW,6.9,-,N/A,,Clear,230,2013-02-27 09:15:00
4:35 AM,52.7,47.3,82,29.65,10.0,SW,11.5,16.1,N/A,,Clear,230,2013-02-27 09:35:00
4:55 AM,52.7,46.8,80,29.66,10.0,WSW,11.5,-,N/A,,Clear,240,2013-02-27 09:55:00
5:15 AM,52.7,46.4,79,29.65,10.0,WSW,10.4,-,N/A,,Clear,240,2013-02-27 10:15:00
5:35 AM,52.7,46.6,80,29.65,10.0,SW,8.1,-,N/A,,Clear,230,2013-02-27 10:35:00
5:55 AM,52.7,45.7,77,29.65,10.0,SW,6.9,-,N/A,,Clear,220,2013-02-27 10:55:00
6:15 AM,52.7,45.1,75,29.65,10.0,SW,11.5,16.1,N/A,,Clear,220,2013-02-27 11:15:00
6:35 AM,50.2,42.6,75,29.67,10.0,WSW,11.5,21.9,N/A,,Clear,250,2013-02-27 11:35:00
6:55 AM,50.2,42.8,76,29.69,10.0,West,16.1,26.5,N/A,,Scattered Clouds,260,2013-02-27 11:55:00
7:15 AM,47.8,40.8,77,29.70,10.0,West,10.4,18.4,N/A,,Mostly Cloudy,260,2013-02-27 12:15:00
7:35 AM,47.7,40.6,77,29.72,10.0,West,12.7,25.3,N/A,,Overcast,260,2013-02-27 12:35:00
7:55 AM,47.7,40.5,76,29.73,10.0,West,13.8,25.3,N/A,,Overcast,260,2013-02-27 12:55:00
8:15 AM,47.5,40.3,76,29.74,10.0,West,12.7,27.6,N/A,,Overcast,260,2013-02-27 13:15:00
8:35 AM,47.7,40.6,77,29.75,10.0,WSW,12.7,18.4,N/A,,Mostly Cloudy,250,2013-02-27 13:35:00
8:55 AM,48.9,41.9,77,29.76,10.0,WSW,13.8,-,N/A,,Scattered Clouds,240,2013-02-27 13:55:00
9:15 AM,50.2,43.0,76,29.77,10.0,WSW,16.1,21.9,N/A,,Scattered Clouds,240,2013-02-27 14:15:00
9:35 AM,50.7,43.2,75,29.77,10.0,WSW,15.0,-,N/A,,Scattered Clouds,250,2013-02-27 14:35:00
9:55 AM,52.7,44.4,73,29.77,10.0,West,9.2,20.7,N/A,,Clear,260,2013-02-27 14:55:00
10:15 AM,52.7,43.9,72,29.77,10.0,West,13.8,19.6,N/A,,Scattered Clouds,260,2013-02-27 15:15:00
10:35 AM,52.7,43.2,70,29.77,10.0,West,10.4,19.6,N/A,,Scattered Clouds,260,2013-02-27 15:35:00
10:55 AM,52.7,43.0,70,29.78,10.0,West,12.7,18.4,N/A,,Scattered Clouds,260,2013-02-27 15:55:00
11:15 AM,54.3,43.0,66,29.78,10.0,WSW,10.4,17.3,N/A,,Clear,250,2013-02-27 16:15:00
11:35 AM,54.5,43.5,66,29.78,10.0,WSW,11.5,20.7,N/A,,Scattered Clouds,250,2013-02-27 16:35:00
11:55 AM,55.4,44.1,66,29.77,10.0,WSW,10.4,17.3,N/A,,Scattered Clouds,250,2013-02-27 16:55:00
12:15 PM,57.7,45.5,64,29.77,10.0,WSW,13.8,17.3,N/A,,Scattered Clouds,240,2013-02-27 17:15:00
12:35 PM,58.1,44.2,60,29.76,-9999.0,West,10.4,16.1,N/A,,Scattered Clouds,260,2013-02-27 17:35:00
12:55 PM,58.1,43.7,59,29.76,-9999.0,West,10.4,17.3,N/A,,Clear,270,2013-02-27 17:55:00
1:15 PM,58.1,43.0,57,29.75,-9999.0,West,11.5,-,N/A,,Clear,260,2013-02-27 18:15:00
1:35 PM,58.1,41.0,53,29.74,-9999.0,WSW,11.5,17.3,N/A,,Clear,240,2013-02-27 18:35:00
1:55 PM,58.1,40.3,52,29.74,-9999.0,WSW,10.4,17.3,N/A,,Clear,250,2013-02-27 18:55:00
2:15 PM,58.6,40.5,51,29.73,-9999.0,WSW,11.5,18.4,N/A,,Clear,250,2013-02-27 19:15:00
2:35 PM,59.0,39.0,48,29.74,-9999.0,West,11.5,18.4,N/A,,Clear,260,2013-02-27 19:35:00
2:55 PM,58.1,38.5,48,29.73,-9999.0,WSW,15.0,-,N/A,,Clear,240,2013-02-27 19:55:00
3:15 PM,59.0,38.8,47,29.73,10.0,WSW,11.5,17.3,N/A,,Clear,240,2013-02-27 20:15:00
3:35 PM,59.2,39.2,48,29.74,10.0,WSW,10.4,-,N/A,,Clear,240,2013-02-27 20:35:00
3:55 PM,59.4,39.6,48,29.73,10.0,WSW,12.7,17.3,N/A,,Clear,250,2013-02-27 20:55:00
4:15 PM,58.5,39.0,48,29.74,10.0,WSW,11.5,-,N/A,,Clear,250,2013-02-27 21:15:00
4:35 PM,58.5,38.7,48,29.73,10.0,WSW,9.2,-,N/A,,Clear,240,2013-02-27 21:35:00
5:15 PM,58.1,38.8,49,29.73,10.0,WSW,9.2,-,N/A,,Clear,250,2013-02-27 22:15:00
5:35 PM,58.1,40.3,52,29.73,10.0,SW,10.4,-,N/A,,Clear,230,2013-02-27 22:35:00
5:55 PM,58.1,41.9,55,29.74,10.0,WSW,8.1,-,N/A,,Clear,240,2013-02-27 22:55:00
6:15 PM,55.8,40.8,57,29.74,10.0,SW,6.9,-,N/A,,Clear,230,2013-02-27 23:15:00
6:35 PM,53.8,40.3,60,29.74,10.0,West,4.6,-,N/A,,Clear,260,2013-02-27 23:35:00
6:55 PM,52.7,41.7,66,29.75,10.0,SW,3.5,-,N/A,,Clear,230,2013-02-27 23:55:00
7:15 PM,52.7,42.3,68,29.75,10.0,Calm,Calm,-,N/A,,Clear,0,2013-02-28 00:15:00
7:35 PM,50.2,42.6,75,29.75,10.0,Calm,Calm,-,N/A,,Clear,0,2013-02-28 00:35:00
7:55 PM,49.8,42.6,76,29.75,10.0,Calm,Calm,-,N/A,,Clear,0,2013-02-28 00:55:00
8:15 PM,49.8,42.8,77,29.75,10.0,Calm,Calm,-,N/A,,Clear,0,2013-02-28 01:15:00
8:35 PM,48.7,41.9,77,29.74,10.0,Calm,Calm,-,N/A,,Clear,0,2013-02-28 01:35:00
8:55 PM,45.7,39.6,79,29.75,10.0,South,3.5,-,N/A,,Clear,190,2013-02-28 01:55:00
9:15 PM,48.6,41.5,77,29.74,10.0,South,3.5,-,N/A,,Clear,190,2013-02-28 02:15:00
9:35 PM,50.2,43.0,76,29.75,10.0,SSW,3.5,-,N/A,,Clear,210,2013-02-28 02:35:00
9:55 PM,49.1,42.3,77,29.74,10.0,SSW,4.6,-,N/A,,Clear,200,2013-02-28 02:55:00
10:15 PM,48.4,41.7,78,29.75,10.0,SSW,4.6,-,N/A,,Clear,210,2013-02-28 03:15:00
10:35 PM,47.3,41.0,79,29.74,10.0,SW,4.6,-,N/A,,Clear,220,2013-02-28 03:35:00
11:15 PM,47.7,41.4,79,29.73,10.0,SSW,4.6,-,N/A,,Clear,200,2013-02-28 04:15:00
11:35 PM,46.6,40.6,80,29.73,10.0,SW,5.8,-,N/A,,Clear,220,2013-02-28 04:35:00
11:55 PM,46.4,40.3,79,29.72,10.0,SSW,4.6,-,N/A,,Clear,210,2013-02-28 04:55:00